Starlink 32837

operational
NORAD ID: 62812 Int'l Des: 2025-018 Owner: SPXS Country: US Constellation: starlink
LEOCIRCULAR

About Starlink 32837

Description loading...

Live Position

Loading 3D Globe...

Upcoming Passes

Altitude History

Altitude vs Time

uPlot chart will show altitude changes over time

Two-Line Element Set

1 62812U 25018G 25304.84382288 .00036221 00000-0 12293-2 0 9995
2 62812 53.1575 187.9372 0001020 84.9513 275.1604 15.30195232 43459
Epoch: Oct 31, 2025 • Age: 14 hours

Current Status

Altitude 478.6 km
Velocity 7.63 km/s
Sub-Earth Point 42.38°N, 27.9°E
Launch Date Jan 24, 2025
Age 0.7 years
Type internet

Technical Details

Classification Payload
Mass 730.00 kg
Dry Mass 700.00 kg
Total Mass 730.00 kg
Length 0.30 m
Diameter 4.10 m
Span 29.00 m
Shape Box + pan
Manufacturer SPXS
Bus Type Starlink V2M
Phase Status In Orbit
Owner/State SPXS/US

Large Constellations

Loading constellations...